Regional Weather Roundup
Issued by NWS Cleveland, OH

Home | Current Version | Previous Version | Graphics & Text | Print | Product List | Glossary On
Versions: 1 2 3 4 5 6 7 8 9 10 11 12 13 14 15 16 17 18 19 20 21 22 23 24 25 26 27 28 29 30 31 32 33 34 35 36 37 38 39 40 41 42 43 44 45 46 47 48 49 50
000
ASUS41 KCLE 182210
RWRCLE
OHIO REGIONAL WEATHER ROUNDUP
NATIONAL WEATHER SERVICE CLEVELAND, OH
600 PM EDT FRI APR 18 2014

NOTE: "FAIR" INDICATES FEW OR NO CLOUDS BELOW 12,000 FEET WITH NO
SIGNIFICANT WEATHER AND/OR OBSTRUCTIONS TO VISIBILITY.

OHZ001>008-015>018-024>027-034-035-043-044-182300-
   NORTHWEST OHIO

CITY           SKY/WX    TMP DP  RH WIND       PRES   REMARKS
DEFIANCE       SUNNY     68  37  32 NW12G20   30.22F
FINDLAY        MOSUNNY   68  38  33 W14G21    30.20F
TOLEDO EXPRESS MOSUNNY   66  37  34 NW13      30.21F
TOLEDO EXEC    PTSUNNY   65  41  41 NE6G18    30.22F
LIMA           MOSUNNY   68  40  35 NW14      30.21F
$$

OHZ009>014-019>023-028>033-038-089-182300-
   NORTHEAST OHIO

CITY           SKY/WX    TMP DP  RH WIND       PRES   REMARKS
CLE-HOPKINS    PTSUNNY   63  40  42 NE8       30.26S
CLE-LAKEFRONT  MOSUNNY   55  44  66 NE7       30.22F
CUY CO. ARPT   PTSUNNY   61  41  48 N12       30.25S
LORAIN-ELYRIA  PTSUNNY   63  41  44 E3        30.23F
ASHTABULA      MOSUNNY   60  39  45 NW8G18    30.24F
AKRON-CANTON   CLOUDY    68  36  30 NW8       30.22F
WOOSTER        CLOUDY    63  40  42 NW12      30.23S
MANSFIELD      PTSUNNY   64  39  39 W8        30.23F
YOUNGSTOWN     PTSUNNY   62  37  39 NW14G22   30.22R
$$

OHZ042-051>053-060>062-070>072-077>081-182300-
  SOUTHWEST OHIO

CITY           SKY/WX    TMP DP  RH WIND       PRES   REMARKS
CINC-COVINGTON PTSUNNY   69  35  28 NE6       30.22F
CINC-LUNKEN    CLOUDY    68  38  33 CALM      30.22F
HAMILTON       PTSUNNY   70  38  31 CALM      30.22F
DAYTON         PTSUNNY   69  39  33 W8        30.23F
WRIGHT-PAT AFB PTSUNNY   68  37  31 VRB2      30.22F
DAYTON GENERAL CLOUDY    68  38  33 VRB7      30.22F
WILMINGTON     CLOUDY    66  35  31 CALM      30.22F
$$

OHZ036-037-039>041-045>050-054>059-063>069-073>076-082>088-182300-
  CENTRAL AND SOUTHEAST OHIO

CITY           SKY/WX    TMP DP  RH WIND       PRES   REMARKS
COLUMBUS       CLOUDY    68  35  29 W8        30.22S
OSU AIRPORT    CLOUDY    68  38  33 NW6       30.22F
BOLTON FIELD   CLOUDY    66  39  37 MISG      30.22F
RICKENBACK AFB CLOUDY    69  28  21 NW6       30.21F
NEWARK         CLOUDY    67  34  29 VRB3      30.21F
MARION         PTSUNNY   64  38  38 W7        30.22F
LANCASTER      CLOUDY    68  36  30 NW6       30.22F
ZANESVILLE     PTSUNNY   68  33  27 W7        30.21F
NEW PHILLY     CLOUDY    66  34  30 NW8       30.21F
$$



USA.gov is the U.S. government's official web portal to all federal, state and local government web resources and services.